Weather in Balaklava

Russia / Republic of Crimea     44°30′05″N   33°36′00″E
temp.,
°C
wind,
m/s
gust,
m/s
humid.,
%
clouds,
%
prec.,
mm/h
press.,
hPa
HPBL,
m
27 november, sat
sat2700:00+11se121873100 0.0 1009584
03:00+12ese141879100 0.8 1007680
06:00+13se121679100 0.0 1007732
09:00+14s7129088 0.0 1008473
12:00+14ssw81287100 0.0 1009561
15:00+14s61085100 0.0 1008414
18:00+14s71188100 0.1 1009327
21:00+14s5987100 0.1 1009213
28 november, sun
sun2800:00+13sse578849 0.0 1009148
03:00+13sse468961 0.0 1009108
06:00+13se4691100 0.0 1009133
09:00+14s61187100 0.1 1010323
12:00+13ese4690100 1.6 1009236
15:00+13se71094100 4.0 1008535
18:00+14se9148561 2.9 1006458
21:00+14se10138465 3.0 1007412
29 november, mon
mon2900:00+14sse61087100 0.0 1007263
03:00+14sse711875 0.0 1007258
06:00+14sse81284100 0.3 1005288
09:00+16se11166682 0.7 1003307
12:00+16sse111672100 0.1 1002521
15:00+15s81778100 0.8 1001602
18:00+16ssw122375100 0.6 1001897
21:00+14sw152387100 1.1 1001853
30 november, tue
tue3000:00+12wsw81090100 2.1 1001581
03:00+12sw3481100 2.5 1002493
06:00+11w588796 0.9 1003726
09:00+11s137837 1.0 1004467
12:00+13ssw787994 0.1 1003845
15:00+12sw5879100 0.3 1000814
18:00+10se5789100 4.1 997611
21:00+8nnw202192100 8.1 9981067
1 december, wed
wed100:00+8nnw121461100 2.6 10051214
03:00+8nw91163100 2.6 10091185
06:00+8nw786046 0.0 10111065
09:00+8nw46575 0.0 10121033
12:00+9wsw585492 0.0 10121661
15:00+9wsw9106596 0.3 10111421
18:00+9w9105697 0.9 10111507
21:00+9w7958100 1.0 10121511